Regional Weather Roundup
Issued by NWS

Home | Current Version | Previous Version | Text Only | Print | Product List | Glossary On
Versions: 1 2 3 4 5 6 7 8 9 10 11 12 13 14 15 16 17 18 19 20 21 22 23 24 25 26 27 28 29 30 31 32 33 34 35 36 37 38 39 40 41 42 43 44 45 46 47 48 49 50
000
ASCA42 TJSJ 070810
RWRPR
PUERTO RICO/U.S. VIRGIN ISLANDS HOURLY WEATHER ROUNDUP
NATIONAL WEATHER SERVICE SAN JUAN PR
400 AM AST TUE JUL 07 2015

PRZ001-004-070900-
PUERTO RICO

CITY           SKY/WX    TMP DP  RH WIND       PRES   REMARKS
SAN JUAN LMM   PTCLDY    79  73  83 E6        30.03S
PONCE          CLEAR     77  70  78 CALM      29.97S
CEIBA          CLOUDY    81  73  78 E8        30.05S
$$

PRZ006-007-070900-
U.S. VIRGIN ISLANDS

CITY           SKY/WX    TMP DP  RH WIND       PRES   REMARKS
CHARLOTTE AMA  CLOUDY    81  73  78 E5        30.02S
CHRISTIANSTED  CLEAR     79  72  78 E12       30.02F
$$

HOURLY WEATHER ROUNDUP FOR THE NEWS MEDIA

CITY           SKY/WX    TMP DP  RH WIND       PRES   REMARKS
ORLANDO        CLEAR     73  72  96 CALM      30.12S
NEW YORK       FOG       75  72  90 SE7       30.06S VSB 1
NEWARK         MOCLDY    74  72  93 E7        30.04S
CHICAGO        CLOUDY    71  68  90 SW7       29.83S
HARTFORD       MOCLDY    63  62  97 CALM      30.10F
BOSTON         CLEAR     66  63  90 S5        30.11S
DALLAS         CLOUDY    81  72  74 S23       29.94F
PHILADELPHIA   CLOUDY    77  72  84 S7        30.02F
LOS ANGELES    CLOUDY    64  60  87 E3        30.00F
WASHINGTON DC  MOCLDY    72  70  94 SW3       30.03S


USA.gov is the U.S. government's official web portal to all federal, state and local government web resources and services.